| time (UTC) | temp C | wind direction | speed KPH | gust KPH | rain 1hr cm | rain 24hr cm | rain mn cm | humidity % | barometer mb |
| 20260831011531 | 30 | 71 | 1.6 | 4.8 | 0.00 | 0.00 | 0.00 | 51 | 1010.8 |
| 20260831010026 | 31 | 80 | 3.2 | 4.8 | 0.00 | 0.00 | 0.00 | 49 | 1010.8 |
| 20260831004528 | 32 | 102 | 1.6 | 9.7 | 0.00 | 0.00 | 0.00 | 46 | 1010.7 |
| 20260831003026 | 33 | 142 | 0.0 | 9.7 | 0.00 | 0.00 | 0.00 | 45 | 1010.5 |
| 20260831001525 | 33 | 104 | 1.6 | 11.3 | 0.00 | 0.00 | 0.00 | 43 | 1010.5 |
| 20260831000036 | 33 | 127 | 3.2 | 12.9 | 0.00 | 0.00 | 0.00 | 41 | 1010.5 |
| 20260830234524 | 33 | 90 | 4.8 | 11.3 | 0.00 | 0.00 | 0.00 | 42 | 1010.5 |
| 20260830233033 | 33 | 176 | 6.4 | 29.0 | 0.00 | 0.00 | 0.00 | 42 | 1010.5 |
| 20260830231529 | 33 | 144 | 1.6 | 12.9 | 0.00 | 0.00 | 0.00 | 44 | 1010.5 |
| 20260830230021 | 33 | 92 | 8.0 | 16.1 | 0.00 | 0.00 | 0.00 | 44 | 1010.6 |
| 20260830224520 | 35 | 126 | 6.4 | 14.5 | 0.00 | 0.00 | 0.00 | 43 | 1010.6 |
| 20260830223020 | 35 | 199 | 6.4 | 16.1 | 0.00 | 0.00 | 0.00 | 42 | 1010.6 |
| 20260830221516 | 34 | 159 | 4.8 | 12.9 | 0.00 | 0.00 | 0.00 | 43 | 1010.8 |
| 20260830220015 | 34 | 151 | 4.8 | 12.9 | 0.00 | 0.00 | 0.00 | 44 | 1010.7 |
| 20260830214513 | 34 | 184 | 3.2 | 14.5 | 0.00 | 0.00 | 0.00 | 44 | 1010.9 |
| 20260830213012 | 34 | 104 | 6.4 | 16.1 | 0.00 | 0.00 | 0.00 | 42 | 1011.1 |
| 20260830211514 | 35 | 167 | 4.8 | 17.7 | 0.00 | 0.00 | 0.00 | 44 | 1011.2 |
| 20260830210007 | 34 | 156 | 4.8 | 22.5 | 0.00 | 0.00 | 0.00 | 43 | 1011.4 |
| 20260830204506 | 34 | 156 | 3.2 | 16.1 | 0.00 | 0.00 | 0.00 | 45 | 1011.7 |
| 20260830203005 | 35 | 67 | 6.4 | 16.1 | 0.00 | 0.00 | 0.00 | 42 | 1011.9 |
| 20260830201502 | 35 | 257 | 8.0 | 22.5 | 0.00 | 0.00 | 0.00 | 44 | 1012.1 |
| 20260830200058 | 34 | 166 | 4.8 | 14.5 | 0.00 | 0.00 | 0.00 | 46 | 1012.3 |
| 20260830194556 | 34 | 171 | 3.2 | 12.9 | 0.00 | 0.00 | 0.00 | 46 | 1012.7 |
| 20260830193054 | 34 | 121 | 6.4 | 16.1 | 0.00 | 0.00 | 0.00 | 44 | 1012.8 |
| 20260830191551 | 33 | 182 | 6.4 | 14.5 | 0.00 | 0.00 | 0.00 | 48 | 1013.1 |
| 20260830190049 | 33 | 113 | 8.0 | 20.9 | 0.00 | 0.00 | 0.00 | 48 | 1013.2 |
| 20260830184546 | 33 | 109 | 4.8 | 12.9 | 0.00 | 0.00 | 0.00 | 49 | 1013.4 |
| 20260830183044 | 33 | 252 | 3.2 | 9.7 | 0.00 | 0.00 | 0.00 | 50 | 1013.6 |
| 20260830181539 | 32 | 261 | 3.2 | 14.5 | 0.00 | 0.00 | 0.00 | 52 | 1014.0 |
| 20260830180038 | 32 | 144 | 6.4 | 19.3 | 0.00 | 0.00 | 0.00 | 50 | 1014.3 |
| 20260830174535 | 32 | 102 | 4.8 | 17.7 | 0.00 | 0.00 | 0.00 | 52 | 1014.4 |
| 20260830173032 | 32 | 175 | 3.2 | 9.7 | 0.00 | 0.00 | 0.00 | 55 | 1014.5 |
| 20260830171529 | 31 | 277 | 3.2 | 12.9 | 0.00 | 0.00 | 0.00 | 59 | 1014.7 |
| 20260830170025 | 31 | 144 | 6.4 | 14.5 | 0.00 | 0.00 | 0.00 | 59 | 1015.0 |
| 20260830164547 | 30 | 252 | 3.2 | 16.1 | 0.00 | 0.00 | 0.00 | 62 | 1015.0 |
| 20260830163026 | 30 | 251 | 6.4 | 12.9 | 0.00 | 0.00 | 0.00 | 64 | 1015.2 |
| 20260830161518 | 29 | 251 | 4.8 | 12.9 | 0.00 | 0.00 | 0.00 | 63 | 1015.0 |
| 20260830160016 | 29 | 168 | 3.2 | 12.9 | 0.00 | 0.00 | 0.00 | 65 | 1015.1 |
| 20260830154514 | 28 | 205 | 8.0 | 16.1 | 0.00 | 0.00 | 0.00 | 66 | 1015.0 |
| 20260830153011 | 28 | 183 | 3.2 | 11.3 | 0.00 | 0.00 | 0.00 | 70 | 1015.0 |
| 20260830151509 | 27 | 169 | 3.2 | 9.7 | 0.00 | 0.00 | 0.00 | 72 | 1015.0 |
| 20260830150006 | 27 | 222 | 4.8 | 11.3 | 0.00 | 0.00 | 0.00 | 74 | 1015.0 |
| 20260830144504 | 26 | 116 | 3.2 | 8.0 | 0.00 | 0.00 | 0.00 | 76 | 1015.1 |
| 20260830143003 | 26 | 293 | 1.6 | 11.3 | 0.00 | 0.00 | 0.00 | 80 | 1015.1 |
| 20260830141502 | 25 | 264 | 3.2 | 12.9 | 0.00 | 0.00 | 0.00 | 82 | 1015.1 |
| 20260830140001 | 25 | 107 | 0.0 | 4.8 | 0.00 | 0.00 | 0.00 | 85 | 1015.2 |
| 20260830134559 | 24 | 203 | 0.0 | 6.4 | 0.00 | 0.00 | 0.00 | 86 | 1015.0 |
| 20260830133058 | 23 | 116 | 0.0 | 4.8 | 0.00 | 0.00 | 0.00 | 89 | 1015.0 |
| 20260830131556 | 23 | 121 | 0.0 | 0.0 | 0.00 | 0.00 | 0.00 | 91 | 1014.8 |
| 20260830130106 | 22 | 121 | 0.0 | 0.0 | 0.00 | 0.00 | 0.00 | 91 | 1014.7 |
| 20260830124555 | 22 | 121 | 0.0 | 0.0 | 0.00 | 0.00 | 0.00 | 91 | 1014.7 |
| 20260830123109 | 22 | 121 | 0.0 | 0.0 | 0.00 | 0.00 | 0.00 | 90 | 1014.5 |
| 20260830121555 | 22 | 121 | 0.0 | 0.0 | 0.00 | 0.00 | 0.00 | 90 | 1014.4 |
| 20260830120054 | 22 | 156 | 0.0 | 0.0 | 0.00 | 0.00 | 0.00 | 90 | 1014.4 |
| 20260830114604 | 22 | 156 | 0.0 | 1.6 | 0.00 | 0.00 | 0.00 | 90 | 1014.4 |
| 20260830113049 | 22 | 175 | 0.0 | 4.8 | 0.00 | 0.00 | 0.00 | 88 | 1014.5 |
| 20260830111548 | 22 | 100 | 0.0 | 3.2 | 0.00 | 0.00 | 0.00 | 89 | 1014.4 |
| 20260830110047 | 22 | 102 | 0.0 | 0.0 | 0.00 | 0.00 | 0.00 | 88 | 1014.3 |
| 20260830104551 | 22 | 97 | 1.6 | 3.2 | 0.00 | 0.00 | 0.00 | 87 | 1014.2 |
| 20260830103044 | 22 | 94 | 1.6 | 3.2 | 0.00 | 0.00 | 0.00 | 86 | 1014.2 |
| 20260830101543 | 22 | 99 | 1.6 | 3.2 | 0.00 | 0.00 | 0.00 | 85 | 1014.3 |
| 20260830100041 | 22 | 132 | 0.0 | 4.8 | 0.00 | 0.00 | 0.00 | 84 | 1014.3 |
| 20260830094541 | 22 | 94 | 0.0 | 0.0 | 0.00 | 0.00 | 0.00 | 83 | 1014.2 |
| 20260830093037 | 23 | 102 | 0.0 | 0.0 | 0.00 | 0.00 | 0.00 | 82 | 1014.2 |
| 20260830091539 | 23 | 102 | 0.0 | 0.0 | 0.00 | 0.00 | 0.00 | 81 | 1014.2 |
| 20260830090036 | 23 | 97 | 0.0 | 0.0 | 0.00 | 0.00 | 0.00 | 81 | 1014.2 |
| 20260830084537 | 23 | 102 | 0.0 | 0.0 | 0.00 | 0.00 | 0.00 | 80 | 1014.2 |
| 20260830083033 | 23 | 102 | 0.0 | 0.0 | 0.00 | 0.00 | 0.00 | 79 | 1014.3 |
| 20260830081543 | 23 | 102 | 0.0 | 0.0 | 0.00 | 0.00 | 0.00 | 78 | 1014.2 |
| 20260830080027 | 24 | 102 | 0.0 | 3.2 | 0.00 | 0.00 | 0.00 | 76 | 1014.4 |
| 20260830074527 | 25 | 85 | 3.2 | 8.0 | 0.00 | 0.00 | 0.00 | 75 | 1014.6 |
| 20260830073026 | 25 | 101 | 3.2 | 6.4 | 0.00 | 0.00 | 0.00 | 74 | 1014.7 |
| 20260830071521 | 25 | 102 | 3.2 | 6.4 | 0.00 | 0.00 | 0.00 | 73 | 1014.6 |
| 20260830070019 | 25 | 96 | 3.2 | 8.0 | 0.00 | 0.00 | 0.00 | 72 | 1014.7 |
| 20260830064517 | 26 | 81 | 3.2 | 6.4 | 0.00 | 0.00 | 0.00 | 72 | 1014.6 |
| 20260830063024 | 26 | 111 | 0.0 | 4.8 | 0.00 | 0.00 | 0.00 | 72 | 1014.6 |
| 20260830061513 | 26 | 134 | 3.2 | 8.0 | 0.00 | 0.00 | 0.00 | 71 | 1014.6 |
| 20260830060017 | 26 | 92 | 1.6 | 8.0 | 0.00 | 0.00 | 0.00 | 70 | 1014.6 |
| 20260830054526 | 26 | 119 | 3.2 | 8.0 | 0.00 | 0.00 | 0.00 | 69 | 1014.5 |
| 20260830053008 | 26 | 59 | 3.2 | 9.7 | 0.00 | 0.00 | 0.00 | 69 | 1014.5 |
| 20260830051506 | 27 | 90 | 3.2 | 8.0 | 0.00 | 0.00 | 0.00 | 68 | 1014.3 |
| 20260830050005 | 27 | 98 | 1.6 | 6.4 | 0.00 | 0.00 | 0.00 | 68 | 1014.3 |
| 20260830044506 | 27 | 97 | 3.2 | 6.4 | 0.00 | 0.00 | 0.00 | 67 | 1014.2 |
| 20260830043002 | 27 | 64 | 3.2 | 8.0 | 0.00 | 0.00 | 0.00 | 67 | 1014.2 |
| 20260830041500 | 27 | 170 | 1.6 | 4.8 | 0.00 | 0.00 | 0.00 | 66 | 1014.2 |
| 20260830040110 | 27 | 163 | 0.0 | 4.8 | 0.00 | 0.00 | 0.00 | 65 | 1014.2 |
| 20260830034600 | 27 | 130 | 1.6 | 6.4 | 0.00 | 0.00 | 0.00 | 64 | 1014.0 |
| 20260830033059 | 27 | 65 | 4.8 | 9.7 | 0.00 | 0.00 | 0.00 | 63 | 1014.0 |
| 20260830031558 | 27 | 90 | 0.0 | 4.8 | 0.00 | 0.00 | 0.00 | 62 | 1013.9 |
| 20260830030133 | 27 | 97 | 0.0 | 1.6 | 0.00 | 0.00 | 0.00 | 61 | 1013.7 |
| 20260830024556 | 27 | 97 | 0.0 | 0.0 | 0.00 | 0.03 | 0.00 | 60 | 1013.6 |
| 20260830023112 | 27 | 97 | 0.0 | 0.0 | 0.00 | 0.03 | 0.00 | 58 | 1013.3 |
| 20260830021555 | 28 | 97 | 0.0 | 0.0 | 0.00 | 0.03 | 0.00 | 57 | 1013.0 |
| 20260830020100 | 28 | 97 | 0.0 | 0.0 | 0.00 | 0.03 | 0.00 | 55 | 1012.9 |
| 20260830014556 | 29 | 97 | 0.0 | 1.6 | 0.00 | 0.03 | 0.00 | 53 | 1012.7 |
| 20260830013053 | 30 | 87 | 0.0 | 4.8 | 0.00 | 0.03 | 0.00 | 52 | 1012.5 |